Flag for Pakistan Weather past 2 weeks in Rawalpindi, Pakistan

Now
99 °F

Passing clouds.


Feels Like: 97 °F
Forecast: 74 / 97 °F
Wind: 7 mph from South

Location: Islamabad Airport

Current Time: May 28, 2015 at 5:11:04 PM

Latest Report: May 28, 2015 at 5:00 PM


Visibility: 4 mi

Pressure: 29.65 "Hg

Humidity: 24%

Dew point: 55 °F

Location of RawalpindiLocation

Historic Weather in Rawalpindi — Graph

°F

Rawalpindi temperature yesterday

Maximum temperature yesterday: 100 °F (at 10:00 PM)
Minimum temperature yesterday: 72 °F (at 4:00 AM)
Average temperature yesterday: 86 °F

Past Weeks' High & Low Weather Summary

 TemperatureHumidityPressure
High100 °F (May 22, 3:00 PM)94% (May 17, 12:00 PM)29.95 "Hg (May 17, 12:00 PM)
Low66 °F (May 15, 4:00 AM)18% (May 22, 3:00 PM)29.50 "Hg (May 25, 5:00 PM)
Average83 °F45%29.72 "Hg
* Reported May 13 4:00 PM — May 28 4:00 PM, Rawalpindi, Weather by CustomWeather, © 2015

Note: Actual official high and low records may vary slightly from our data, if they occured in-between our weather recording intervals... More about our weather records

Advertising

Rawalpindi weather history for previous 24 hours

 ConditionsComfort  
Time TempWeatherWind HumidityBarometerVisibility
4:00 PM
Thu, May 28
100 °FPassing clouds.7 mph22%29.65 "Hg4 mi
3:00 PM99 °FPassing clouds.9 mph24%29.68 "Hg4 mi
2:00 PM99 °FScattered clouds.7 mph27%29.71 "Hg4 mi
1:00 PM95 °FScattered clouds.5 mph22%29.71 "Hg4 mi
12:00 PM93 °FScattered clouds.12 mph23%29.74 "Hg4 mi
11:00 AM91 °FPartly sunny.5 mph24%29.77 "Hg4 mi
10:00 AM90 °FPartly sunny.7 mph27%29.77 "Hg3 mi
9:00 AM86 °FScattered clouds.5 mph29%29.74 "Hg2 mi
8:00 AM82 °FPartly sunny.7 mph30%29.71 "Hg4 mi
7:00 AM81 °FScattered clouds.5 mph32%29.71 "Hg4 mi
6:00 AM77 °FScattered clouds.5 mph36%29.68 "Hg4 mi
5:00 AM77 °FScattered clouds.5 mph39%29.68 "Hg4 mi
4:00 AM77 °FPassing clouds.5 mph36%29.65 "Hg4 mi
3:00 AM81 °FPassing clouds.7 mph34%29.71 "Hg4 mi
11:00 PM
Wed, May 27
81 °FPassing clouds.7 mph34%29.71 "Hg4 mi
10:00 PM100 °FPassing clouds.12 mph20%29.74 "Hg4 mi
9:00 PM86 °FPassing clouds.9 mph33%29.71 "Hg4 mi
8:00 PM91 °FPassing clouds.7 mph32%29.71 "Hg4 mi
7:00 PM93 °FScattered clouds.5 mph30%29.71 "Hg4 mi
6:00 PM97 °FScattered clouds.5 mph23%29.71 "Hg4 mi
5:00 PM97 °FThunderstorms. Cloudy.N/A23%29.71 "HgN/A
Weather by CustomWeather, © 2015

See weather overviewHow to use our weather pages